Wind From: 23-09-2018 17:01 Until: 24-09-2018 15:00 warning for: Wind Level: Yellow info button

Although rather usual in this region, locally or potentially dangerous phenomena are expected. (such as local winds, summer thunderstorms, rising streams or high waves) Be aware and pay attention to the latest weather updates, especially if you carry out activities exposed to weather or close to a stream or shoreline. 

Meteo18 Weather Cam more information Meteo18 Weather Cam


Thunder radar more information blitzortung!


Rain radar more information rain snow radar



Select another period ( hide this area )

Units Period Custom range Directly to
Metric English Both
Daily Weekly Monthly Yearly
use both date-selectors for a custom range
previous Day
With this date

WeatherUnderground graphs for this period ( click here )


Daily Summary for Sunday 23 September 2018
Time Temp. ( °C ) Dew pt. ( °C ) Wind ( km/h ) from Gust ( km/h ) Pressure ( hPa ) Humid.( % ) Rainrate ( cm )
High21,9 18,8 45,1 SW ( 1590/3827 ) 45,1 1022,6 95 5,10
Average18,7 16,3 15,2 SW #102/252 25,3 1018,9 87 2,80
Low14,1 11,0 1,4   12,9 1016,8 57 -
Daily Tabular details for Sunday 23 September 2018
Time Temp. ( °C ) Dew pt. ( °C ) Wind ( km/h ) from Gust ( km/h ) Pressure ( hPa ) Humid.( % ) Rainrate ( cm )
00:04 19,8 11,0 14,3 West 24,1 1020,2 57 -
00:08 19,9 11,1 6,4 SW 24,1 1020,2 57 -
00:14 19,9 11,1 16,3 WSW 27,4 1020,2 57 -
00:18 19,9 11,4 11,1 WSW 29,0 1020,2 58 -
00:24 19,9 11,6 14,3 SSW 22,5 1020,2 59 -
00:28 19,9 11,6 11,1 West 20,9 1020,2 59 -
00:34 19,9 11,9 11,1 SW 22,5 1020,2 60 -
00:38 19,9 12,2 27,4 SW 30,6 1020,2 61 -
00:44 19,9 12,4 13,0 WSW 32,2 1020,2 62 -
00:48 20,0 12,5 17,7 West 29,0 1019,9 62 -
00:54 20,0 12,5 9,7 SW 25,7 1020,2 62 -
00:58 20,0 12,7 19,5 SW 30,6 1020,2 63 -
01:04 19,9 12,6 7,9 SSW 20,9 1020,2 63 -
01:08 19,9 12,9 14,3 SW 30,6 1020,2 64 -
01:14 19,9 13,1 17,7 WSW 30,6 1020,2 65 -
01:18 19,9 13,4 19,5 SW 25,7 1020,2 66 -
01:24 19,9 13,4 16,3 WSW 27,4 1019,9 66 -
01:28 19,9 13,4 13,0 SSW 25,7 1019,9 66 -
01:34 19,9 13,6 11,1 West 27,4 1019,9 67 -
01:38 19,9 13,6 24,1 SW 24,1 1019,9 67 -
01:44 19,9 13,8 14,3 WSW 30,6 1019,9 68 -
01:48 19,9 13,8 16,3 SW 20,9 1019,9 68 -
01:54 19,8 13,9 17,7 SSW 27,4 1020,2 69 -
01:58 19,8 13,9 13,0 SW 30,6 1020,2 69 -
02:04 19,8 14,2 13,0 SW 22,5 1020,2 70 -
02:08 19,8 14,2 14,3 WSW 22,5 1020,2 70 -
02:14 19,7 14,3 13,0 WSW 22,5 1020,2 71 -
02:18 19,7 14,3 11,1 SW 20,9 1020,2 71 -
02:24 19,7 14,5 7,9 WSW 22,5 1020,2 72 -
02:28 19,6 14,6 7,9 SW 29,0 1019,9 73 -
02:34 19,6 14,6 17,7 WSW 24,1 1020,2 73 -
02:38 19,6 14,8 11,1 SW 19,3 1020,2 74 -
02:44 19,6 14,8 9,7 South 24,1 1020,2 74 -
02:48 19,6 14,8 16,3 WSW 17,7 1020,2 74 -
02:54 19,5 14,7 13,0 SW 22,5 1020,2 74 -
02:58 19,5 14,9 9,7 WSW 16,1 1020,2 75 -
03:04 19,4 15,1 7,9 WSW 12,9 1020,2 76 -
03:08 19,4 15,1 1,4 SW 16,1 1020,2 76 -
03:14 19,3 15,0 13,0 SW 17,7 1019,9 76 -
03:18 19,3 15,2 28,8 WSW 37,0 1019,9 77 -
03:24 19,2 15,5 9,7 West 19,3 1019,9 79 -
03:28 19,1 15,6 13,0 SW 22,5 1019,9 80 -
03:34 19,1 15,8 11,1 West 22,5 1019,9 81 -
03:38 19,0 15,7 9,7 WSW 16,1 1019,9 81 -
03:44 18,8 15,9 4,7 West 22,5 1019,9 83 -
03:48 18,7 15,8 13,0 SW 24,1 1019,9 83 -
03:54 18,7 15,9 11,1 SW 22,5 1019,9 84 -
03:58 18,7 15,9 22,7 SW 24,1 1019,5 84 -
04:04 18,7 15,9 9,7 SW 14,5 1019,5 84 -
04:08 18,7 15,9 9,7 WSW 29,0 1019,5 84 -
04:14 18,6 16,0 17,7 SW 25,7 1019,5 85 -
04:18 18,6 16,0 16,3 SW 22,5 1019,5 85 -
04:24 18,6 16,2 9,7 West 19,3 1019,5 86 -
04:28 18,6 16,2 16,3 SW 24,1 1019,5 86 -
04:34 18,5 16,3 17,7 SSW 25,7 1019,5 87 -
04:38 18,4 16,2 9,7 SW 24,1 1019,2 87 -
04:44 18,3 16,3 11,1 WSW 24,1 1019,2 88 -
04:48 18,3 16,3 14,3 SW 19,3 1019,2 88 -
04:54 18,3 16,3 16,3 SW 22,5 1019,2 88 -
04:58 18,3 16,3 19,5 SW 29,0 1019,2 88 -
05:04 18,4 16,2 24,1 SW 29,0 1019,2 87 -
05:08 18,4 16,4 22,7 SW 25,7 1019,2 88 -
05:14 18,3 16,3 16,3 SSW 25,7 1019,2 88 -
05:18 18,3 16,5 9,7 WSW 30,6 1019,2 89 -
05:24 18,1 16,4 11,1 SW 20,9 1018,8 90 -
05:28 18,1 16,4 19,5 SW 19,3 1019,2 90 -
05:34 18,0 16,3 20,9 SW 25,7 1018,8 90 -
05:38 17,9 16,4 17,7 SW 20,9 1018,8 91 -
05:44 17,9 16,4 11,1 WSW 20,9 1018,8 91 -
05:48 17,9 16,4 16,3 WSW 24,1 1018,8 91 -
05:54 17,9 16,4 17,7 WSW 19,3 1018,8 91 -
05:58 17,9 16,4 7,9 SW 14,5 1018,8 91 -
06:04 17,9 16,6 11,1 SW 20,9 1018,8 92 -
06:08 17,9 16,6 3,2 West 17,7 1018,8 92 -
06:14 18,0 16,7 20,9 WSW 25,7 1018,8 92 -
06:18 18,0 16,7 14,3 SW 22,5 1018,8 92 -
06:24 17,9 16,6 9,7 SW 20,9 1018,5 92 -
06:28 17,9 16,6 16,3 SW 20,9 1018,5 92 -
06:34 17,9 16,6 19,5 WSW 27,4 1018,8 92 -
06:38 17,9 16,6 6,4 WSW 22,5 1018,8 92 -
06:44 18,0 16,7 14,3 SW 16,1 1018,8 92 -
06:48 18,1 16,8 14,3 SW 22,5 1018,8 92 -
06:54 18,1 16,8 6,4 WSW 19,3 1018,8 92 -
06:58 18,1 16,8 7,9 SSW 19,3 1018,8 92 -
07:03 18,1 16,8 7,9 SSW 20,9 1018,8 92 -
07:09 18,0 16,7 19,5 SW 27,4 1018,8 92 -
07:13 17,9 16,6 13,0 SW 20,9 1018,8 92 -
07:19 17,9 16,8 11,1 WSW 24,1 1018,8 93 -
07:23 17,9 16,8 13,0 SW 22,5 1018,5 93 -
07:29 17,9 16,8 16,3 SSW 20,9 1018,5 93 -
07:33 18,0 16,9 17,7 WSW 27,4 1018,5 93 -
07:39 17,9 16,8 25,9 SW 25,7 1018,5 93 -
07:43 17,9 16,8 14,3 SSW 24,1 1018,5 93 -
07:49 17,9 16,8 19,5 WSW 24,1 1018,5 93 -
07:53 18,0 16,9 17,7 SSW 22,5 1018,8 93 -
07:59 17,9 16,8 17,7 WSW 22,5 1018,5 93 -
08:03 17,9 16,8 7,9 SW 25,7 1018,8 93 -
08:09 17,9 16,8 14,3 WSW 20,9 1018,8 93 -
08:13 17,9 16,8 14,3 SW 19,3 1018,8 93 -
08:19 17,9 16,8 11,1 SW 19,3 1018,8 93 -
08:23 17,9 16,8 9,7 SW 16,1 1018,8 93 -
08:29 17,9 16,8 13,0 SW 22,5 1018,8 93 -
08:33 17,9 16,8 11,1 SW 17,7 1018,8 93 -
08:39 17,9 16,8 11,1 SW 19,3 1018,8 93 -
08:43 17,9 16,8 17,7 SW 19,3 1018,8 93 -
08:49 17,9 16,9 14,3 SW 20,9 1018,8 94 -
08:53 17,9 16,9 13,0 SSW 17,7 1018,8 94 -
08:59 17,9 16,9 13,0 SW 24,1 1018,8 94 -
09:03 18,0 17,0 16,3 WSW 20,9 1018,8 94 -
09:09 18,1 17,1 13,0 SW 20,9 1018,8 94 -
09:13 18,1 17,1 11,1 SW 16,1 1018,8 94 -
09:19 18,1 17,1 13,0 West 19,3 1018,8 94 -
09:23 18,1 17,1 6,4 SW 19,3 1018,8 94 -
09:29 18,1 17,1 17,7 SW 20,9 1018,8 94 -
09:33 18,1 17,1 13,0 SW 20,9 1018,8 94 -
09:39 18,1 17,1 13,0 SSW 19,3 1018,8 94 -
09:43 18,1 17,1 14,3 WSW 25,7 1018,8 94 -
09:49 18,1 17,1 16,3 SW 24,1 1018,8 94 -
09:53 18,1 17,1 11,1 SW 19,3 1018,8 94 -
09:59 18,2 17,2 13,0 SW 16,1 1018,8 94 -
10:03 18,2 17,2 7,9 SW 17,7 1018,8 94 -
10:09 18,2 17,2 16,3 SW 19,3 1018,8 94 -
10:13 18,3 17,3 17,7 SSW 22,5 1018,8 94 -
10:19 18,3 17,3 19,5 WSW 19,3 1018,8 94 -
10:23 18,3 17,3 19,5 WSW 22,5 1018,8 94 -
10:29 18,4 17,4 13,0 SSW 22,5 1018,8 94 -
10:33 18,4 17,2 16,3 SW 24,1 1018,8 93 -
10:39 18,4 17,2 14,3 SSW 27,4 1018,8 93 -
10:43 18,5 17,3 16,3 WSW 24,1 1018,8 93 -
10:49 18,6 17,4 16,3 West 25,7 1018,8 93 -
10:53 18,6 17,4 9,7 SW 19,3 1018,8 93 -
10:59 18,7 17,5 13,0 SW 27,4 1018,8 93 -
11:03 18,7 17,4 6,4 SSW 20,9 1018,8 92 -
11:09 18,8 17,5 22,7 SW 27,4 1018,8 92 -
11:13 18,8 17,5 19,5 SW 24,1 1018,8 92 -
11:19 18,9 17,6 14,3 WNW 25,7 1018,8 92 -
11:23 18,9 17,4 19,5 SW 35,4 1018,8 91 -
11:29 19,1 17,6 17,7 WSW 35,4 1018,8 91 -
11:33 19,1 17,6 16,3 WSW 29,0 1018,8 91 -
11:39 19,1 17,6 19,5 SW 30,6 1018,8 91 -
11:43 19,2 17,5 19,5 SW 25,7 1018,5 90 -
11:49 19,1 17,4 20,9 WSW 33,8 1018,5 90 -
11:53 19,0 17,3 27,4 SW 27,4 1018,5 90 -
11:59 18,9 17,4 16,3 SW 27,4 1018,5 91 -
12:03 18,9 17,2 19,5 WSW 30,6 1018,5 90 -
12:09 19,0 17,3 27,4 WSW 27,4 1018,5 90 -
12:13 19,1 17,4 13,0 SW 27,4 1018,5 90 -
12:19 19,1 17,4 16,3 West 27,4 1018,5 90 -
12:23 19,2 17,5 13,0 WSW 25,7 1018,5 90 -
12:27 19,3 17,4 16,3 SW 20,9 1018,5 89 -
12:33 19,4 17,5 45,1 SW 45,1 1018,2 89 -
12:38 19,4 17,5 7,9 WSW 29,0 1018,2 89 -
12:44 19,5 17,5 13,0 WSW 25,7 1018,2 88 -
12:48 19,6 17,6 13,0 SSW 24,1 1018,2 88 -
12:54 19,6 17,6 17,7 SW 27,4 1018,2 88 -
12:58 19,6 17,6 25,9 SW 33,8 1018,2 88 -
13:04 19,6 17,6 20,9 SW 30,6 1018,2 88 -
13:08 19,7 17,7 11,1 WSW 32,2 1018,2 88 -
13:14 19,8 17,8 19,5 WSW 35,4 1018,2 88 -
13:18 19,8 17,6 16,3 WSW 27,4 1018,2 87 -
13:24 19,9 17,7 30,6 WSW 30,6 1018,5 87 -
13:28 20,0 17,8 11,1 WSW 32,2 1018,5 87 -
13:34 20,1 17,9 27,4 SW 33,8 1018,2 87 -
13:38 20,1 17,9 14,3 SW 29,0 1018,2 87 -
13:44 20,2 18,0 14,3 SW 22,5 1018,2 87 -
13:48 20,3 17,9 13,0 WSW 32,2 1018,2 86 -
13:54 20,4 18,0 24,1 SW 27,4 1018,2 86 -
13:58 20,6 18,2 13,0 West 27,4 1018,2 86 -
14:04 20,9 18,3 11,1 SW 27,4 1018,2 85 -
14:08 21,1 18,3 14,3 SSW 32,2 1017,8 84 -
14:14 21,3 18,5 22,7 West 24,1 1017,5 84 -
14:18 21,5 18,5 17,7 SSW 29,0 1017,5 83 -
14:24 21,6 18,6 17,7 West 25,7 1017,8 83 -
14:28 21,6 18,4 17,7 SW 29,0 1017,8 82 -
14:34 21,6 18,4 11,1 WSW 25,7 1017,5 82 -
14:38 21,7 18,5 25,9 WSW 32,2 1017,5 82 -
14:44 21,8 18,4 22,7 SW 29,0 1017,2 81 -
14:48 21,8 18,4 17,7 WSW 32,2 1017,2 81 -
14:54 21,9 18,5 7,9 SW 27,4 1016,8 81 -
14:58 21,9 18,3 9,7 SW 32,2 1016,8 80 -
15:04 21,9 18,3 11,1 SW 40,2 1016,8 80 -
15:08 21,9 18,3 19,5 WSW 29,0 1016,8 80 -
15:14 21,8 18,4 13,0 WSW 33,8 1016,8 81 -
15:18 21,7 18,3 27,4 WSW 33,8 1017,2 81 -
15:24 21,6 18,2 19,5 WSW 32,2 1016,8 81 -
15:28 21,4 18,4 14,3 SW 33,8 1016,8 83 -
15:34 21,1 18,5 17,7 WNW 29,0 1016,8 85 -
15:38 20,9 18,3 28,8 WSW 35,4 1017,2 85 -
15:44 20,5 18,3 16,3 WSW 33,8 1017,2 87 -
15:48 20,4 18,3 7,9 SW 22,5 1017,2 88 -
15:54 20,3 18,4 14,3 SSW 19,3 1017,2 89 -
15:58 20,2 18,5 16,3 West 29,0 1017,2 90 -
16:04 20,1 18,4 20,9 WSW 27,4 1016,8 90 -
16:08 20,1 18,4 28,8 SW 35,4 1017,2 90 -
16:14 19,9 18,4 17,7 WSW 30,6 1016,8 91 -
16:18 19,9 18,4 11,1 SW 29,0 1017,2 91 0,30
16:24 19,8 18,5 24,1 WSW 32,2 1017,2 92 0,30
16:28 19,7 18,4 24,1 West 27,4 1017,2 92 0,30
16:34 19,7 18,5 28,8 SW 29,0 1017,2 93 0,30
16:38 19,7 18,5 32,0 WSW 32,2 1017,2 93 0,50
16:44 19,7 18,5 28,8 WSW 29,0 1017,2 93 0,50
16:48 19,7 18,5 13,0 West 35,4 1017,2 93 0,50
16:54 19,6 18,4 16,3 SW 27,4 1017,2 93 0,50
16:58 19,6 18,4 13,0 SSW 32,2 1017,2 93 0,50
17:04 19,6 18,6 27,4 SW 27,4 1017,2 94 0,50
17:08 19,6 18,6 7,9 SW 27,4 1017,2 94 0,50
17:14 19,6 18,6 13,0 WSW 25,7 1017,2 94 0,50
17:18 19,6 18,6 11,1 SW 38,6 1017,2 94 0,30
17:24 19,6 18,6 17,7 SW 32,2 1017,2 94 0,50
17:28 19,6 18,6 7,9 WSW 27,4 1017,2 94 0,80
17:34 19,6 18,6 27,4 WSW 32,2 1017,2 94 1,30
17:38 19,5 18,5 16,3 West 25,7 1017,2 94 1,30
17:44 19,5 18,5 16,3 West 27,4 1017,2 94 1,50
17:48 19,5 18,5 14,3 West 25,7 1017,2 94 1,50
17:54 19,5 18,5 13,0 West 30,6 1017,2 94 1,50
17:58 19,5 18,5 19,5 WNW 30,6 1017,2 94 1,50
18:04 19,5 18,7 11,1 West 27,4 1017,2 95 2,00
18:08 19,6 18,8 16,3 West 32,2 1017,5 95 2,50
18:14 19,6 18,8 14,3 WNW 22,5 1017,5 95 4,60
18:18 19,6 18,8 13,0 WSW 19,3 1017,5 95 5,10
18:24 19,6 18,8 17,7 West 27,4 1017,5 95 5,10
18:28 19,6 18,6 13,0 West 22,5 1017,5 94 4,80
18:34 19,7 18,4 17,7 WSW 24,1 1017,8 92 4,30
18:38 19,7 18,4 13,0 WNW 27,4 1017,8 92 4,30
18:44 19,7 18,2 14,3 NNW 22,5 1018,5 91 4,30
18:48 18,4 15,6 30,6 NNW 30,6 1018,8 84 4,30
18:54 16,5 14,3 13,0 North 29,0 1018,8 87 4,10
18:58 15,9 14,1 11,1 NW 25,7 1019,2 89 4,10
19:04 15,4 13,8 14,3 NNW 29,0 1019,5 90 3,60
19:08 15,3 13,8 13,0 NW 22,5 1019,5 91 3,00
19:14 15,2 13,7 9,7 North 25,7 1019,5 91 1,00
19:18 15,1 13,8 11,1 NNW 19,3 1019,9 92 0,50
19:24 14,9 13,4 17,7 North 32,2 1019,9 91 0,30
19:28 14,7 13,4 4,7 NW 25,7 1019,9 92 0,30
19:34 14,6 13,5 19,5 NNW 22,5 1019,9 93 0,30
19:38 14,5 13,4 6,4 WNW 33,8 1019,9 93 0,30
19:44 14,5 13,4 7,9 NW 16,1 1020,2 93 0,30
19:48 14,5 13,4 11,1 North 12,9 1020,5 93 0,30
19:54 14,5 13,4 4,7 WNW 16,1 1020,5 93 0,30
19:58 14,4 13,3 11,1 NW 17,7 1020,5 93 0,30
20:04 14,4 13,3 13,0 NW 20,9 1020,9 93 0,30
20:08 14,4 13,3 11,1 NW 19,3 1020,9 93 0,30
20:12 14,3 13,3 13,0 NNW 19,3 1021,2 94 0,30
20:18 14,3 13,3 16,3 NNW 27,4 1021,2 94 0,50
20:22 14,2 13,1 20,9 NW 30,6 1021,2 93 0,50
20:28 14,1 13,0 11,1 NNE 29,0 1021,6 93 0,50
20:32 14,1 12,8 16,3 North 27,4 1021,6 92 0,50
20:39 14,1 12,8 17,7 North 29,0 1021,9 92 0,50
20:43 14,1 12,8 13,0 North 29,0 1022,2 92 0,30
20:49 14,1 12,8 6,4 North 17,7 1022,2 92 0,30
20:53 14,1 12,8 13,0 North 25,7 1022,2 92 0,30
20:59 14,1 12,8 4,7 North 24,1 1022,6 92 0,30
Daily Summary for Sunday 23 September 2018
Time Temp. ( °C ) Dew pt. ( °C ) Wind ( km/h ) from Gust ( km/h ) Pressure ( hPa ) Humid.( % ) Rainrate ( cm )
High21,9 18,8 45,1 SW ( 1590/3827 ) 45,1 1022,6 95 5,10
Average18,7 16,3 15,2 SW #102/252 25,3 1018,9 87 2,80
Low14,1 11,0 1,4   12,9 1016,8 57 -
Daily Tabular details for Sunday 23 September 2018
Time Temp. ( °C ) Dew pt. ( °C ) Wind ( km/h ) from Gust ( km/h ) Pressure ( hPa ) Humid.( % ) Rainrate ( cm )
00:04 19,8 11,0 14,3 West 24,1 1020,2 57 -
00:08 19,9 11,1 6,4 SW 24,1 1020,2 57 -
00:14 19,9 11,1 16,3 WSW 27,4 1020,2 57 -
00:18 19,9 11,4 11,1 WSW 29,0 1020,2 58 -
00:24 19,9 11,6 14,3 SSW 22,5 1020,2 59 -
00:28 19,9 11,6 11,1 West 20,9 1020,2 59 -
00:34 19,9 11,9 11,1 SW 22,5 1020,2 60 -
00:38 19,9 12,2 27,4 SW 30,6 1020,2 61 -
00:44 19,9 12,4 13,0 WSW 32,2 1020,2 62 -
00:48 20,0 12,5 17,7 West 29,0 1019,9 62 -
00:54 20,0 12,5 9,7 SW 25,7 1020,2 62 -
00:58 20,0 12,7 19,5 SW 30,6 1020,2 63 -
01:04 19,9 12,6 7,9 SSW 20,9 1020,2 63 -
01:08 19,9 12,9 14,3 SW 30,6 1020,2 64 -
01:14 19,9 13,1 17,7 WSW 30,6 1020,2 65 -
01:18 19,9 13,4 19,5 SW 25,7 1020,2 66 -
01:24 19,9 13,4 16,3 WSW 27,4 1019,9 66 -
01:28 19,9 13,4 13,0 SSW 25,7 1019,9 66 -
01:34 19,9 13,6 11,1 West 27,4 1019,9 67 -
01:38 19,9 13,6 24,1 SW 24,1 1019,9 67 -
01:44 19,9 13,8 14,3 WSW 30,6 1019,9 68 -
01:48 19,9 13,8 16,3 SW 20,9 1019,9 68 -
01:54 19,8 13,9 17,7 SSW 27,4 1020,2 69 -
01:58 19,8 13,9 13,0 SW 30,6 1020,2 69 -
02:04 19,8 14,2 13,0 SW 22,5 1020,2 70 -
02:08 19,8 14,2 14,3 WSW 22,5 1020,2 70 -
02:14 19,7 14,3 13,0 WSW 22,5 1020,2 71 -
02:18 19,7 14,3 11,1 SW 20,9 1020,2 71 -
02:24 19,7 14,5 7,9 WSW 22,5 1020,2 72 -
02:28 19,6 14,6 7,9 SW 29,0 1019,9 73 -
02:34 19,6 14,6 17,7 WSW 24,1 1020,2 73 -
02:38 19,6 14,8 11,1 SW 19,3 1020,2 74 -
02:44 19,6 14,8 9,7 South 24,1 1020,2 74 -
02:48 19,6 14,8 16,3 WSW 17,7 1020,2 74 -
02:54 19,5 14,7 13,0 SW 22,5 1020,2 74 -
02:58 19,5 14,9 9,7 WSW 16,1 1020,2 75 -
03:04 19,4 15,1 7,9 WSW 12,9 1020,2 76 -
03:08 19,4 15,1 1,4 SW 16,1 1020,2 76 -
03:14 19,3 15,0 13,0 SW 17,7 1019,9 76 -
03:18 19,3 15,2 28,8 WSW 37,0 1019,9 77 -
03:24 19,2 15,5 9,7 West 19,3 1019,9 79 -
03:28 19,1 15,6 13,0 SW 22,5 1019,9 80 -
03:34 19,1 15,8 11,1 West 22,5 1019,9 81 -
03:38 19,0 15,7 9,7 WSW 16,1 1019,9 81 -
03:44 18,8 15,9 4,7 West 22,5 1019,9 83 -
03:48 18,7 15,8 13,0 SW 24,1 1019,9 83 -
03:54 18,7 15,9 11,1 SW 22,5 1019,9 84 -
03:58 18,7 15,9 22,7 SW 24,1 1019,5 84 -
04:04 18,7 15,9 9,7 SW 14,5 1019,5 84 -
04:08 18,7 15,9 9,7 WSW 29,0 1019,5 84 -
04:14 18,6 16,0 17,7 SW 25,7 1019,5 85 -
04:18 18,6 16,0 16,3 SW 22,5 1019,5 85 -
04:24 18,6 16,2 9,7 West 19,3 1019,5 86 -
04:28 18,6 16,2 16,3 SW 24,1 1019,5 86 -
04:34 18,5 16,3 17,7 SSW 25,7 1019,5 87 -
04:38 18,4 16,2 9,7 SW 24,1 1019,2 87 -
04:44 18,3 16,3 11,1 WSW 24,1 1019,2 88 -
04:48 18,3 16,3 14,3 SW 19,3 1019,2 88 -
04:54 18,3 16,3 16,3 SW 22,5 1019,2 88 -
04:58 18,3 16,3 19,5 SW 29,0 1019,2 88 -
05:04 18,4 16,2 24,1 SW 29,0 1019,2 87 -
05:08 18,4 16,4 22,7 SW 25,7 1019,2 88 -
05:14 18,3 16,3 16,3 SSW 25,7 1019,2 88 -
05:18 18,3 16,5 9,7 WSW 30,6 1019,2 89 -
05:24 18,1 16,4 11,1 SW 20,9 1018,8 90 -
05:28 18,1 16,4 19,5 SW 19,3 1019,2 90 -
05:34 18,0 16,3 20,9 SW 25,7 1018,8 90 -
05:38 17,9 16,4 17,7 SW 20,9 1018,8 91 -
05:44 17,9 16,4 11,1 WSW 20,9 1018,8 91 -
05:48 17,9 16,4 16,3 WSW 24,1 1018,8 91 -
05:54 17,9 16,4 17,7 WSW 19,3 1018,8 91 -
05:58 17,9 16,4 7,9 SW 14,5 1018,8 91 -
06:04 17,9 16,6 11,1 SW 20,9 1018,8 92 -
06:08 17,9 16,6 3,2 West 17,7 1018,8 92 -
06:14 18,0 16,7 20,9 WSW 25,7 1018,8 92 -
06:18 18,0 16,7 14,3 SW 22,5 1018,8 92 -
06:24 17,9 16,6 9,7 SW 20,9 1018,5 92 -
06:28 17,9 16,6 16,3 SW 20,9 1018,5 92 -
06:34 17,9 16,6 19,5 WSW 27,4 1018,8 92 -
06:38 17,9 16,6 6,4 WSW 22,5 1018,8 92 -
06:44 18,0 16,7 14,3 SW 16,1 1018,8 92 -
06:48 18,1 16,8 14,3 SW 22,5 1018,8 92 -
06:54 18,1 16,8 6,4 WSW 19,3 1018,8 92 -
06:58 18,1 16,8 7,9 SSW 19,3 1018,8 92 -
07:03 18,1 16,8 7,9 SSW 20,9 1018,8 92 -
07:09 18,0 16,7 19,5 SW 27,4 1018,8 92 -
07:13 17,9 16,6 13,0 SW 20,9 1018,8 92 -
07:19 17,9 16,8 11,1 WSW 24,1 1018,8 93 -
07:23 17,9 16,8 13,0 SW 22,5 1018,5 93 -
07:29 17,9 16,8 16,3 SSW 20,9 1018,5 93 -
07:33 18,0 16,9 17,7 WSW 27,4 1018,5 93 -
07:39 17,9 16,8 25,9 SW 25,7 1018,5 93 -
07:43 17,9 16,8 14,3 SSW 24,1 1018,5 93 -
07:49 17,9 16,8 19,5 WSW 24,1 1018,5 93 -
07:53 18,0 16,9 17,7 SSW 22,5 1018,8 93 -
07:59 17,9 16,8 17,7 WSW 22,5 1018,5 93 -
08:03 17,9 16,8 7,9 SW 25,7 1018,8 93 -
08:09 17,9 16,8 14,3 WSW 20,9 1018,8 93 -
08:13 17,9 16,8 14,3 SW 19,3 1018,8 93 -
08:19 17,9 16,8 11,1 SW 19,3 1018,8 93 -
08:23 17,9 16,8 9,7 SW 16,1 1018,8 93 -
08:29 17,9 16,8 13,0 SW 22,5 1018,8 93 -
08:33 17,9 16,8 11,1 SW 17,7 1018,8 93 -
08:39 17,9 16,8 11,1 SW 19,3 1018,8 93 -
08:43 17,9 16,8 17,7 SW 19,3 1018,8 93 -
08:49 17,9 16,9 14,3 SW 20,9 1018,8 94 -
08:53 17,9 16,9 13,0 SSW 17,7 1018,8 94 -
08:59 17,9 16,9 13,0 SW 24,1 1018,8 94 -
09:03 18,0 17,0 16,3 WSW 20,9 1018,8 94 -
09:09 18,1 17,1 13,0 SW 20,9 1018,8 94 -
09:13 18,1 17,1 11,1 SW 16,1 1018,8 94 -
09:19 18,1 17,1 13,0 West 19,3 1018,8 94 -
09:23 18,1 17,1 6,4 SW 19,3 1018,8 94 -
09:29 18,1 17,1 17,7 SW 20,9 1018,8 94 -
09:33 18,1 17,1 13,0 SW 20,9 1018,8 94 -
09:39 18,1 17,1 13,0 SSW 19,3 1018,8 94 -
09:43 18,1 17,1 14,3 WSW 25,7 1018,8 94 -
09:49 18,1 17,1 16,3 SW 24,1 1018,8 94 -
09:53 18,1 17,1 11,1 SW 19,3 1018,8 94 -
09:59 18,2 17,2 13,0 SW 16,1 1018,8 94 -
10:03 18,2 17,2 7,9 SW 17,7 1018,8 94 -
10:09 18,2 17,2 16,3 SW 19,3 1018,8 94 -
10:13 18,3 17,3 17,7 SSW 22,5 1018,8 94 -
10:19 18,3 17,3 19,5 WSW 19,3 1018,8 94 -
10:23 18,3 17,3 19,5 WSW 22,5 1018,8 94 -
10:29 18,4 17,4 13,0 SSW 22,5 1018,8 94 -
10:33 18,4 17,2 16,3 SW 24,1 1018,8 93 -
10:39 18,4 17,2 14,3 SSW 27,4 1018,8 93 -
10:43 18,5 17,3 16,3 WSW 24,1 1018,8 93 -
10:49 18,6 17,4 16,3 West 25,7 1018,8 93 -
10:53 18,6 17,4 9,7 SW 19,3 1018,8 93 -
10:59 18,7 17,5 13,0 SW 27,4 1018,8 93 -
11:03 18,7 17,4 6,4 SSW 20,9 1018,8 92 -
11:09 18,8 17,5 22,7 SW 27,4 1018,8 92 -
11:13 18,8 17,5 19,5 SW 24,1 1018,8 92 -
11:19 18,9 17,6 14,3 WNW 25,7 1018,8 92 -
11:23 18,9 17,4 19,5 SW 35,4 1018,8 91 -
11:29 19,1 17,6 17,7 WSW 35,4 1018,8 91 -
11:33 19,1 17,6 16,3 WSW 29,0 1018,8 91 -
11:39 19,1 17,6 19,5 SW 30,6 1018,8 91 -
11:43 19,2 17,5 19,5 SW 25,7 1018,5 90 -
11:49 19,1 17,4 20,9 WSW 33,8 1018,5 90 -
11:53 19,0 17,3 27,4 SW 27,4 1018,5 90 -
11:59 18,9 17,4 16,3 SW 27,4 1018,5 91 -
12:03 18,9 17,2 19,5 WSW 30,6 1018,5 90 -
12:09 19,0 17,3 27,4 WSW 27,4 1018,5 90 -
12:13 19,1 17,4 13,0 SW 27,4 1018,5 90 -
12:19 19,1 17,4 16,3 West 27,4 1018,5 90 -
12:23 19,2 17,5 13,0 WSW 25,7 1018,5 90 -
12:27 19,3 17,4 16,3 SW 20,9 1018,5 89 -
12:33 19,4 17,5 45,1 SW 45,1 1018,2 89 -
12:38 19,4 17,5 7,9 WSW 29,0 1018,2 89 -
12:44 19,5 17,5 13,0 WSW 25,7 1018,2 88 -
12:48 19,6 17,6 13,0 SSW 24,1 1018,2 88 -
12:54 19,6 17,6 17,7 SW 27,4 1018,2 88 -
12:58 19,6 17,6 25,9 SW 33,8 1018,2 88 -
13:04 19,6 17,6 20,9 SW 30,6 1018,2 88 -
13:08 19,7 17,7 11,1 WSW 32,2 1018,2 88 -
13:14 19,8 17,8 19,5 WSW 35,4 1018,2 88 -
13:18 19,8 17,6 16,3 WSW 27,4 1018,2 87 -
13:24 19,9 17,7 30,6 WSW 30,6 1018,5 87 -
13:28 20,0 17,8 11,1 WSW 32,2 1018,5 87 -
13:34 20,1 17,9 27,4 SW 33,8 1018,2 87 -
13:38 20,1 17,9 14,3 SW 29,0 1018,2 87 -
13:44 20,2 18,0 14,3 SW 22,5 1018,2 87 -
13:48 20,3 17,9 13,0 WSW 32,2 1018,2 86 -
13:54 20,4 18,0 24,1 SW 27,4 1018,2 86 -
13:58 20,6 18,2 13,0 West 27,4 1018,2 86 -
14:04 20,9 18,3 11,1 SW 27,4 1018,2 85 -
14:08 21,1 18,3 14,3 SSW 32,2 1017,8 84 -
14:14 21,3 18,5 22,7 West 24,1 1017,5 84 -
14:18 21,5 18,5 17,7 SSW 29,0 1017,5 83 -
14:24 21,6 18,6 17,7 West 25,7 1017,8 83 -
14:28 21,6 18,4 17,7 SW 29,0 1017,8 82 -
14:34 21,6 18,4 11,1 WSW 25,7 1017,5 82 -
14:38 21,7 18,5 25,9 WSW 32,2 1017,5 82 -
14:44 21,8 18,4 22,7 SW 29,0 1017,2 81 -
14:48 21,8 18,4 17,7 WSW 32,2 1017,2 81 -
14:54 21,9 18,5 7,9 SW 27,4 1016,8 81 -
14:58 21,9 18,3 9,7 SW 32,2 1016,8 80 -
15:04 21,9 18,3 11,1 SW 40,2 1016,8 80 -
15:08 21,9 18,3 19,5 WSW 29,0 1016,8 80 -
15:14 21,8 18,4 13,0 WSW 33,8 1016,8 81 -
15:18 21,7 18,3 27,4 WSW 33,8 1017,2 81 -
15:24 21,6 18,2 19,5 WSW 32,2 1016,8 81 -
15:28 21,4 18,4 14,3 SW 33,8 1016,8 83 -
15:34 21,1 18,5 17,7 WNW 29,0 1016,8 85 -
15:38 20,9 18,3 28,8 WSW 35,4 1017,2 85 -
15:44 20,5 18,3 16,3 WSW 33,8 1017,2 87 -
15:48 20,4 18,3 7,9 SW 22,5 1017,2 88 -
15:54 20,3 18,4 14,3 SSW 19,3 1017,2 89 -
15:58 20,2 18,5 16,3 West 29,0 1017,2 90 -
16:04 20,1 18,4 20,9 WSW 27,4 1016,8 90 -
16:08 20,1 18,4 28,8 SW 35,4 1017,2 90 -
16:14 19,9 18,4 17,7 WSW 30,6 1016,8 91 -
16:18 19,9 18,4 11,1 SW 29,0 1017,2 91 0,30
16:24 19,8 18,5 24,1 WSW 32,2 1017,2 92 0,30
16:28 19,7 18,4 24,1 West 27,4 1017,2 92 0,30
16:34 19,7 18,5 28,8 SW 29,0 1017,2 93 0,30
16:38 19,7 18,5 32,0 WSW 32,2 1017,2 93 0,50
16:44 19,7 18,5 28,8 WSW 29,0 1017,2 93 0,50
16:48 19,7 18,5 13,0 West 35,4 1017,2 93 0,50
16:54 19,6 18,4 16,3 SW 27,4 1017,2 93 0,50
16:58 19,6 18,4 13,0 SSW 32,2 1017,2 93 0,50
17:04 19,6 18,6 27,4 SW 27,4 1017,2 94 0,50
17:08 19,6 18,6 7,9 SW 27,4 1017,2 94 0,50
17:14 19,6 18,6 13,0 WSW 25,7 1017,2 94 0,50
17:18 19,6 18,6 11,1 SW 38,6 1017,2 94 0,30
17:24 19,6 18,6 17,7 SW 32,2 1017,2 94 0,50
17:28 19,6 18,6 7,9 WSW 27,4 1017,2 94 0,80
17:34 19,6 18,6 27,4 WSW 32,2 1017,2 94 1,30
17:38 19,5 18,5 16,3 West 25,7 1017,2 94 1,30
17:44 19,5 18,5 16,3 West 27,4 1017,2 94 1,50
17:48 19,5 18,5 14,3 West 25,7 1017,2 94 1,50
17:54 19,5 18,5 13,0 West 30,6 1017,2 94 1,50
17:58 19,5 18,5 19,5 WNW 30,6 1017,2 94 1,50
18:04 19,5 18,7 11,1 West 27,4 1017,2 95 2,00
18:08 19,6 18,8 16,3 West 32,2 1017,5 95 2,50
18:14 19,6 18,8 14,3 WNW 22,5 1017,5 95 4,60
18:18 19,6 18,8 13,0 WSW 19,3 1017,5 95 5,10
18:24 19,6 18,8 17,7 West 27,4 1017,5 95 5,10
18:28 19,6 18,6 13,0 West 22,5 1017,5 94 4,80
18:34 19,7 18,4 17,7 WSW 24,1 1017,8 92 4,30
18:38 19,7 18,4 13,0 WNW 27,4 1017,8 92 4,30
18:44 19,7 18,2 14,3 NNW 22,5 1018,5 91 4,30
18:48 18,4 15,6 30,6 NNW 30,6 1018,8 84 4,30
18:54 16,5 14,3 13,0 North 29,0 1018,8 87 4,10
18:58 15,9 14,1 11,1 NW 25,7 1019,2 89 4,10
19:04 15,4 13,8 14,3 NNW 29,0 1019,5 90 3,60
19:08 15,3 13,8 13,0 NW 22,5 1019,5 91 3,00
19:14 15,2 13,7 9,7 North 25,7 1019,5 91 1,00
19:18 15,1 13,8 11,1 NNW 19,3 1019,9 92 0,50
19:24 14,9 13,4 17,7 North 32,2 1019,9 91 0,30
19:28 14,7 13,4 4,7 NW 25,7 1019,9 92 0,30
19:34 14,6 13,5 19,5 NNW 22,5 1019,9 93 0,30
19:38 14,5 13,4 6,4 WNW 33,8 1019,9 93 0,30
19:44 14,5 13,4 7,9 NW 16,1 1020,2 93 0,30
19:48 14,5 13,4 11,1 North 12,9 1020,5 93 0,30
19:54 14,5 13,4 4,7 WNW 16,1 1020,5 93 0,30
19:58 14,4 13,3 11,1 NW 17,7 1020,5 93 0,30
20:04 14,4 13,3 13,0 NW 20,9 1020,9 93 0,30
20:08 14,4 13,3 11,1 NW 19,3 1020,9 93 0,30
20:12 14,3 13,3 13,0 NNW 19,3 1021,2 94 0,30
20:18 14,3 13,3 16,3 NNW 27,4 1021,2 94 0,50
20:22 14,2 13,1 20,9 NW 30,6 1021,2 93 0,50
20:28 14,1 13,0 11,1 NNE 29,0 1021,6 93 0,50
20:32 14,1 12,8 16,3 North 27,4 1021,6 92 0,50
20:39 14,1 12,8 17,7 North 29,0 1021,9 92 0,50
20:43 14,1 12,8 13,0 North 29,0 1022,2 92 0,30
20:49 14,1 12,8 6,4 North 17,7 1022,2 92 0,30
20:53 14,1 12,8 13,0 North 25,7 1022,2 92 0,30
20:59 14,1 12,8 4,7 North 24,1 1022,6 92 0,30

Download your copy of this data-set  here

Our weather-data as stored at Weather Underground. Script developed by Jim McMurry. Adapted for the template by Leuven-Template.eu

You find our weather info also at:

Weather Underground

Equipment we use:

Weather-station
Davis Vue

Weather-program
Meteobridge

Weather-server
Raspberry PI 2 B+

Provider
1 and 1

Davis Vue

Meteobridge

Raspberry PI 2 B+

1 and 1